Wind_Speed
9 8 8 8 10 9 9 10 11 11 12 12 13 14 14 15 16 16 16 16 16 16 16 17 17 17 17 17 18 19 19 20 20 20 21 20 20 20 20 21 21 21 21
11 11 11 11 11 11 11 11 12 13 13 14 15 16 16 17 17 18 18 18 18 18 18 18 18 18 18 19 19 20 20 20 20 21 21 22 22 22 21 21 22 21 22
13 13 12 12 13 13 14 14 15 16 16 17 17 17 18 19 19 19 19 19 19 19 19 19 19 19 20 20 20 21 21 21 21 22 22 22 22 22 22 22 22 22 23
15 14 14 15 15 16 16 16 17 18 18 19 19 20 20 20 21 20 20 20 20 20 19 20 21 21 21 21 21 21 22 22 22 22 22 22 22 22 23 22 23 23 23
17 17 17 17 18 18 18 18 19 20 20 21 21 21 22 22 22 22 22 21 21 21 21 21 21 22 22 22 22 22 23 23 23 23 23 23 23 23 23 23 23 24 24
19 19 19 19 20 20 21 21 22 22 22 22 22 23 23 24 24 23 23 22 22 22 22 22 23 23 23 23 23 23 24 24 24 24 24 24 23 23 23 23 24 24 24
21 22 22 21 22 23 23 23 24 24 23 23 23 24 24 24 25 24 24 24 24 23 24 24 23 23 24 24 24 24 24 25 25 25 25 24 24 24 24 24 24 25 24
23 24 24 24 25 25 25 25 24 24 24 24 25 25 25 25 25 25 26 25 25 25 25 25 25 25 25 24 24 25 25 25 25 25 25 24 24 24 25 25 25 25 25
25 25 25 25 26 26 26 26 26 26 26 26 26 26 26 25 26 26 26 26 26 26 26 26 26 26 25 25 26 26 26 26 26 25 25 25 25 25 26 26 26 26 26
27 27 27 27 27 28 27 27 27 28 28 27 27 27 26 26 27 27 27 28 28 28 28 28 27 27 27 27 27 26 27 26 26 26 26 26 26 26 26 26 26 26 26
29 29 30 29 29 29 29 29 29 29 29 29 28 28 28 28 28 28 28 29 29 29 29 28 28 27 27 27 27 27 27 27 26 26 26 26 25 26 26 26 26 27 26
30 31 31 31 31 31 31 31 31 30 29 29 29 29 28 29 29 29 29 29 29 29 29 28 28 27 28 28 28 28 28 27 26 26 26 26 25 25 25 25 26 26 25
31 32 32 33 32 32 32 32 31 31 30 29 29 30 29 30 30 30 29 29 29 29 29 28 28 28 28 29 29 28 28 27 26 26 26 25 25 25 25 25 26 26 25
32 33 33 33 33 32 32 32 31 31 31 31 31 31 31 31 31 30 29 29 29 29 29 29 28 28 29 29 29 29 28 27 26 26 25 25 25 25 25 25 26 26 26
31 32 32 33 32 32 32 32 31 31 32 32 32 32 31 31 31 31 30 30 30 30 29 29 28 29 29 29 29 29 28 28 26 25 25 25 25 25 25 25 25 26 26
32 32 32 32 32 32 32 32 32 33 32 32 32 32 32 31 31 31 30 30 30 30 29 29 29 28 29 29 28 28 27 27 26 25 25 25 25 24 25 25 26 26 25
34 33 33 33 33 33 33 33 33 33 33 33 33 33 33 32 31 31 31 31 30 30 29 29 28 28 28 28 28 27 27 27 26 26 25 25 25 25 26 26 26 26 26
34 34 33 32 32 33 33 33 33 33 33 33 33 33 33 32 31 30 30 31 30 29 29 29 28 27 27 27 27 27 27 27 26 26 26 25 25 25 26 26 26 26 25
33 33 33 32 32 33 33 33 34 34 34 34 34 34 33 32 31 30 30 30 29 28 28 27 26 26 26 27 27 27 27 27 27 27 27 27 26 26 26 26 26 26 25
33 33 33 33 33 34 34 33 33 33 33 33 33 33 32 31 30 29 29 29 27 27 26 25 26 26 26 26 27 27 27 27 27 27 27 27 27 26 26 26 26 25 25
33 34 33 34 34 34 34 33 33 32 32 32 31 31 30 29 29 28 28 28 26 25 25 26 26 26 26 27 27 28 28 27 27 27 27 27 27 26 26 26 26 26 26
34 34 34 34 34 33 33 32 32 32 31 31 31 30 30 29 28 27 27 26 26 25 26 26 26 26 26 27 28 28 28 27 27 27 27 26 26 26 26 26 26 26 26
34 34 34 34 33 32 32 32 31 31 31 30 30 29 28 27 27 27 25 25 25 25 25 26 26 27 27 27 27 27 27 27 27 26 26 26 26 26 26 26 26 26 25
33 33 32 32 31 30 31 31 30 30 29 28 27 26 26 26 26 26 25 25 25 25 26 27 27 27 27 28 28 27 27 27 27 26 26 26 26 26 26 26 25 25 25
30 31 31 30 29 29 29 28 28 27 27 26 26 26 26 26 25 25 26 26 26 26 27 27 27 27 28 28 28 27 27 26 27 27 27 26 26 26 26 25 25 25 25
29 29 28 28 27 27 26 26 26 26 26 26 26 26 26 25 25 25 25 26 27 26 26 26 26 27 27 26 26 27 27 26 26 26 26 26 26 25 25 26 26 25 25
Wind_Direction
286 288 292 294 298 303 308 307 308 312 315 316 318 316 314 313 312 312 313 313 311 309 309 309 310 310 310 309 307 303 302 302 303 304 304 304 303 303 302 301 298 295 293
287 285 289 292 295 298 304 306 307 308 311 314 315 315 313 311 311 311 311 313 311 308 307 308 308 309 307 306 307 305 303 302 302 303 303 302 301 302 301 299 299 299 296
285 288 292 298 300 300 303 304 305 306 306 307 307 310 311 310 310 310 310 310 310 310 307 306 307 308 308 307 306 305 304 302 301 300 301 300 300 300 300 300 299 300 298
281 284 288 292 295 297 299 300 302 304 304 303 303 305 307 308 308 309 308 307 308 309 308 307 307 307 308 308 306 306 305 304 301 299 299 299 299 298 298 298 298 299 300
277 280 284 288 291 294 296 297 299 301 302 302 302 302 303 305 306 307 306 305 306 307 307 307 308 308 307 307 306 305 305 303 302 300 299 299 299 298 297 297 298 299 300
278 280 282 286 290 291 292 294 296 298 299 299 300 299 301 302 303 304 304 304 305 305 306 306 306 306 306 305 304 304 304 302 302 301 300 299 299 298 298 297 296 297 298
277 278 279 282 286 288 290 293 294 296 296 296 298 298 298 299 301 303 303 304 305 305 305 305 305 305 305 303 303 305 304 303 302 301 300 300 297 297 297 296 297 298 297
274 277 278 281 285 288 290 291 294 295 297 296 297 297 297 299 301 302 303 304 304 304 304 303 303 303 305 304 304 305 306 304 302 300 299 298 296 295 296 296 296 296 295
274 276 279 281 285 288 289 290 291 292 294 296 299 298 298 298 301 301 301 302 303 303 304 304 303 303 304 304 306 306 306 305 302 299 298 298 297 295 296 297 297 298 296
276 278 280 282 284 287 289 289 289 291 292 294 296 295 296 297 299 299 299 300 301 301 301 302 302 302 303 304 305 305 305 304 302 300 299 297 298 297 296 296 297 298 297
275 277 280 282 284 285 287 290 291 291 292 293 295 294 295 295 296 296 297 298 299 298 298 298 298 299 301 302 302 302 302 301 299 300 300 298 298 299 298 298 299 299 298
273 275 278 282 284 284 285 287 289 291 292 293 294 293 294 295 295 295 294 296 297 296 296 295 295 295 297 299 300 300 301 300 299 299 299 299 298 298 297 298 300 300 298
273 277 278 280 283 283 284 286 287 289 291 293 293 293 293 293 294 294 293 293 294 294 293 293 293 293 294 296 297 298 300 300 300 299 299 298 297 297 297 298 299 299 299
274 276 278 279 280 281 282 285 287 289 290 291 292 293 292 292 293 292 291 291 293 291 291 292 292 292 292 293 295 295 296 297 298 299 299 298 297 295 294 296 298 298 298
273 276 278 279 280 280 282 284 286 288 290 292 292 292 292 292 292 292 289 289 290 289 289 290 291 292 292 292 293 293 294 296 297 298 299 298 297 295 295 296 298 298 299
274 276 278 281 280 279 280 281 283 286 289 290 291 291 291 291 291 291 289 289 290 289 288 289 290 291 291 291 292 292 293 295 296 296 297 298 298 298 298 297 297 298 299
275 276 277 280 281 280 279 280 283 285 287 289 290 291 291 291 290 288 288 288 288 288 287 287 288 289 290 291 291 290 291 292 293 295 296 297 298 297 297 299 300 299 299
276 276 278 280 281 281 281 281 283 285 287 289 290 290 289 290 289 288 287 288 287 287 287 288 287 288 288 289 290 290 291 291 293 294 295 297 298 299 299 298 301 301 300
275 277 278 280 282 283 284 283 284 285 286 287 288 288 288 287 286 286 288 289 287 287 287 287 287 288 289 289 290 291 290 291 292 293 294 295 297 298 300 300 300 300 300
276 277 278 280 282 282 284 284 284 285 286 286 287 288 287 286 286 286 287 289 288 286 285 286 287 288 289 289 290 291 291 291 292 292 293 293 295 297 298 299 300 300 300
277 278 279 281 282 282 282 283 283 284 285 285 286 287 286 286 285 284 285 285 285 285 285 285 286 287 287 289 290 291 292 292 291 290 291 291 293 295 296 297 298 299 301
278 279 279 280 280 281 282 282 282 283 284 284 284 284 284 283 283 282 282 283 283 284 284 284 286 288 288 289 291 291 291 291 292 291 291 291 293 294 294 295 296 297 299
279 279 279 279 279 280 280 281 282 283 284 284 284 284 283 282 281 280 280 281 282 283 284 283 284 287 289 291 292 292 291 292 293 293 292 292 293 293 294 294 295 297 298
279 279 279 279 278 279 280 281 281 282 283 284 285 283 283 283 281 279 278 279 280 281 283 282 283 285 286 288 290 291 292 292 292 292 293 293 294 295 295 295 295 297 298
280 280 279 279 280 279 279 280 280 281 281 282 283 284 284 282 280 279 278 279 280 280 280 280 281 282 284 286 288 289 289 290 292 291 291 292 293 295 295 296 296 296 297
280 281 279 279 279 279 279 279 279 280 280 282 283 285 285 283 283 282 282 282 281 281 281 281 282 283 284 286 288 289 289 290 290 291 291 292 292 293 294 294 294 295 296
Height
5899 5898 5897 5897 5896 5894 5893 5892 5891 5889 5887 5886 5883 5881 5879 5877 5875 5872 5870 5868 5865 5863 5861 5858 5856 5853 5851 5849 5847 5844 5842 5840 5838 5835 5833 5830 5828 5826 5823 5821 5819 5817 5815
5897 5896 5895 5894 5894 5893 5891 5890 5888 5887 5885 5883 5881 5878 5876 5874 5871 5869 5866 5864 5861 5859 5856 5854 5852 5849 5847 5844 5842 5839 5837 5834 5832 5830 5828 5825 5822 5820 5818 5816 5813 5811 5809
5894 5894 5893 5892 5891 5890 5889 5887 5885 5884 5882 5880 5878 5875 5873 5870 5867 5865 5862 5859 5857 5855 5852 5850 5847 5845 5842 5839 5837 5834 5832 5829 5827 5824 5822 5820 5817 5815 5812 5810 5808 5805 5803
5891 5891 5890 5889 5888 5887 5885 5883 5882 5880 5878 5876 5873 5871 5869 5866 5863 5861 5858 5855 5853 5850 5847 5845 5842 5840 5837 5834 5832 5829 5826 5823 5821 5818 5816 5814 5811 5809 5806 5804 5802 5799 5797
5888 5887 5886 5885 5884 5883 5881 5879 5878 5875 5873 5871 5869 5866 5864 5861 5859 5856 5853 5851 5848 5845 5843 5840 5837 5834 5832 5829 5826 5823 5820 5818 5815 5812 5810 5807 5805 5803 5800 5798 5796 5793 5791
5884 5883 5882 5880 5879 5878 5876 5874 5872 5870 5868 5866 5863 5861 5859 5856 5854 5851 5848 5846 5843 5840 5837 5835 5832 5829 5826 5823 5820 5818 5815 5812 5809 5806 5804 5801 5799 5797 5794 5792 5790 5787 5785
5878 5878 5876 5875 5874 5872 5870 5868 5866 5864 5862 5860 5858 5855 5853 5851 5848 5845 5843 5840 5837 5835 5832 5829 5826 5823 5820 5817 5815 5812 5809 5805 5803 5800 5797 5795 5793 5791 5788 5786 5783 5781 5778
5873 5872 5871 5869 5868 5866 5864 5862 5859 5858 5856 5854 5852 5849 5847 5845 5842 5840 5837 5834 5831 5829 5826 5823 5820 5817 5814 5811 5808 5805 5802 5799 5796 5793 5791 5788 5786 5784 5781 5779 5776 5774 5771
5866 5865 5864 5863 5861 5859 5857 5855 5853 5851 5849 5847 5845 5843 5840 5838 5836 5833 5830 5828 5825 5823 5820 5817 5814 5811 5808 5805 5802 5799 5796 5793 5789 5787 5784 5782 5779 5777 5774 5772 5769 5767 5764
5860 5859 5857 5856 5855 5853 5850 5848 5846 5844 5842 5840 5838 5836 5834 5832 5829 5826 5824 5821 5819 5816 5813 5810 5807 5805 5802 5799 5796 5792 5789 5786 5783 5780 5777 5775 5772 5770 5767 5764 5762 5759 5757
5852 5851 5850 5849 5847 5845 5843 5841 5839 5837 5835 5833 5831 5829 5826 5824 5822 5819 5817 5814 5812 5809 5806 5803 5800 5797 5795 5792 5789 5786 5782 5779 5776 5773 5770 5768 5765 5763 5760 5757 5755 5752 5750
5844 5843 5842 5841 5839 5837 5835 5834 5831 5829 5827 5825 5823 5821 5818 5816 5814 5811 5809 5806 5804 5801 5798 5795 5792 5790 5787 5785 5781 5778 5775 5772 5769 5766 5763 5761 5758 5756 5753 5751 5748 5745 5743
5835 5834 5833 5832 5830 5829 5827 5825 5823 5821 5819 5817 5815 5812 5810 5808 5805 5803 5800 5798 5795 5793 5790 5787 5785 5782 5780 5777 5774 5771 5768 5765 5762 5759 5756 5754 5751 5749 5746 5744 5741 5739 5736
5826 5825 5824 5823 5821 5820 5818 5817 5815 5813 5810 5808 5806 5804 5801 5799 5796 5794 5791 5789 5787 5784 5782 5779 5777 5774 5772 5769 5767 5764 5761 5758 5755 5752 5749 5747 5744 5742 5739 5737 5734 5731 5729
5817 5816 5815 5814 5812 5811 5809 5808 5806 5804 5802 5800 5797 5795 5793 5790 5788 5785 5782 5780 5778 5775 5773 5771 5768 5766 5764 5761 5759 5756 5753 5751 5748 5745 5742 5740 5737 5735 5732 5729 5727 5724 5721
5808 5807 5806 5804 5803 5801 5800 5798 5796 5795 5793 5791 5788 5786 5784 5781 5779 5776 5774 5771 5769 5767 5764 5762 5760 5758 5756 5753 5751 5748 5746 5744 5741 5738 5736 5733 5731 5728 5725 5723 5720 5717 5714
5798 5796 5795 5794 5793 5792 5790 5789 5787 5786 5784 5781 5779 5776 5774 5772 5769 5767 5764 5762 5760 5758 5756 5754 5752 5750 5748 5746 5743 5741 5739 5737 5734 5731 5729 5726 5724 5721 5718 5715 5713 5710 5707
5787 5786 5785 5784 5783 5782 5780 5779 5777 5775 5774 5771 5769 5767 5764 5762 5760 5757 5755 5753 5751 5749 5748 5746 5744 5742 5740 5738 5736 5734 5732 5729 5727 5725 5722 5720 5717 5714 5711 5709 5706 5703 5700
5777 5776 5775 5774 5773 5771 5770 5768 5767 5765 5763 5761 5758 5756 5754 5752 5750 5748 5746 5744 5742 5741 5739 5738 5736 5734 5732 5731 5729 5726 5724 5722 5720 5718 5716 5713 5710 5708 5705 5702 5699 5697 5694
5767 5766 5765 5763 5762 5761 5760 5758 5756 5755 5753 5751 5748 5746 5744 5742 5741 5739 5737 5735 5734 5732 5731 5730 5728 5727 5725 5723 5721 5719 5717 5714 5713 5710 5708 5706 5703 5701 5698 5696 5693 5690 5687
5756 5755 5754 5753 5752 5750 5749 5748 5746 5744 5742 5740 5738 5736 5734 5733 5731 5730 5729 5727 5726 5724 5723 5722 5720 5719 5717 5715 5713 5711 5709 5707 5705 5703 5700 5698 5696 5694 5691 5689 5686 5683 5680
5746 5745 5744 5742 5741 5740 5738 5737 5736 5734 5732 5730 5728 5727 5725 5724 5722 5721 5720 5719 5718 5716 5715 5714 5712 5711 5709 5707 5705 5703 5701 5699 5697 5695 5693 5691 5688 5686 5684 5681 5678 5676 5673
5736 5734 5733 5731 5730 5729 5728 5727 5726 5724 5722 5721 5719 5717 5716 5715 5714 5713 5712 5711 5710 5708 5707 5706 5704 5703 5701 5699 5697 5695 5693 5691 5689 5687 5685 5683 5681 5678 5676 5674 5671 5668 5666
5725 5723 5722 5721 5720 5719 5718 5717 5716 5715 5713 5711 5710 5708 5707 5706 5705 5704 5703 5702 5701 5700 5699 5697 5696 5694 5693 5691 5689 5687 5685 5683 5681 5679 5677 5675 5673 5671 5668 5666 5664 5661 5659
5715 5713 5712 5711 5711 5710 5709 5708 5707 5706 5704 5703 5702 5700 5699 5698 5696 5696 5695 5694 5693 5691 5690 5689 5687 5686 5684 5682 5681 5679 5677 5675 5673 5671 5669 5667 5665 5663 5661 5658 5656 5654 5651
5706 5704 5703 5702 5702 5701 5700 5699 5698 5697 5696 5695 5693 5692 5691 5690 5688 5687 5686 5685 5684 5682 5681 5680 5679 5677 5676 5674 5672 5671 5669 5667 5665 5663 5661 5659 5657 5655 5653 5651 5649 5646 5644